Weather in Peski

Russia / Kurgan Oblast     56°06′36″N   62°53′27″E
temp.,
°C
wind,
m/s
gust,
m/s
humid.,
%
clouds,
%
prec.,
mm/h
press.,
hPa
HPBL,
m
3 august, tue
tue323:00+19wsw1159100 0.0 101311
02:00+18sw466398 0.0 101389
05:00+16w35875 0.7 101377
08:00+20w487657 0.3 1013266
11:00+26wnw61051100 0.3 10121265
14:00+28nw61046100 0.0 10122141
17:00+26nnw5753100 0.1 1012955
20:00+21nnw227481 1.7 101218
4 august, wed
wed423:00+18nnw227655 1.8 101212
02:00+17wnw228066 0.0 101311
05:00+16n118216 0.0 101411
08:00+21se116747 0.0 1014165
11:00+26sse114720 0.0 1014935
14:00+29ssw113891 0.0 10131482
17:00+30nne123824 0.0 10121649
20:00+26s225222 0.0 101125
5 august, thu
thu523:00+20nnw117510 1.4 101211
02:00+19ssw348189 0.4 101246
05:00+18ssw358527 0.4 101190
08:00+22s467764 0.3 1011257
11:00+28s675354 0.3 1010812
14:00+32ssw563968 0.0 10081535
17:00+33ssw55345 0.0 10071926
20:00+28s4751100 0.0 1007115
6 august, fri
fri623:00+18nnw2587100 2.8 1007126
02:00+17wsw379414 0.0 1009156
05:00+17nw5109514 0.0 1008274
08:00+17nw468348 0.0 1010489
11:00+21wnw555898 0.0 10101078
14:00+24wnw664829 0.0 10101604
17:00+21wnw5658100 0.0 10101420
20:00+18wnw576992 0.0 1011723
7 august, sat
sat723:00+16wnw5879100 0.0 1011562
02:00+15wnw488595 0.0 1011441
05:00+15nw5108997 0.3 1011476
08:00+16nw698454 0.2 1012572
11:00+18nnw6970100 0.2 1013753
14:00+20n685994 0.0 1014890
17:00+23nnw564968 0.0 10141719
20:00+20nnw475499 0.0 1014151